Voltar ao catálogo

FENGYUN 1C DEB

AtivoPO
NORAD 31613·DEBRIS·🇨🇳 China

Lançado May 10, 1999 de Taiyuan Satellite Launch Center

Loading…

Próximas Passagens (próximas 24 horas)

TLE

AtualizadoSource: Space-Track

Época: Sep 13, 2026, 21:02 UTC

1 31613U 99025BZT 26256.87689682  .00000958  00000-0  83037-3 0  9990
2 31613  98.4491  53.1129 0343247  97.3029 266.7259 13.64263192955121

Acompanhe FENGYUN 1C DEB em tempo real com AllMySat

Download on the App Store